Flag for Netherlands Weather past 2 weeks in Haarlem, Netherlands

Now
39 °F

Passing clouds.


Feels Like: 28 °F
Forecast: 36 / 40 °F
Wind: 26 mph from West

Location: Amsterdam Schiphol Airport

Current Time: Jan 28, 2015 at 11:49:31 PM

Latest Report: Jan 28, 2015 at 10:55 PM


Visibility: N/A

Pressure: 29.39 "Hg

Humidity: 70%

Dew point: 30 °F

Location of HaarlemLocation

Historic Weather in Haarlem — Graph

°F

Haarlem temperature yesterday

Maximum temperature yesterday: 46 °F (at 1:55 PM)
Minimum temperature yesterday: 39 °F (at 12:55 AM)
Average temperature yesterday: 42 °F

Past Weeks' High & Low Weather Summary

 TemperatureHumidityPressure
High50 °F (Jan 15, 7:55 AM)100% (Jan 18, 6:25 AM)30.39 "Hg (Jan 18, 6:25 AM)
Low21 °F (Jan 23, 4:25 AM)66% (Jan 17, 1:25 PM)29.27 "Hg (Jan 15, 3:55 PM)
Average37 °F88%29.92 "Hg
* Reported Jan 13 10:25 PM — Jan 28 10:55 PM, Haarlem, Weather by CustomWeather, © 2014

Note: Actual official high and low records may vary slightly from our data, if they occured in-between our weather recording intervals... More about our weather records

Advertising

Haarlem weather history for previous 24 hours

 ConditionsComfort  
Time TempWeatherWind HumidityBarometerVisibility
10:55 PM
Jan 28
39 °FPassing clouds.26 mph70%29.39 "HgN/A
10:25 PM39 °FPassing clouds.28 mph70%29.39 "HgN/A
9:55 PM41 °FPassing clouds.28 mph66%29.39 "HgN/A
9:25 PM41 °FPartly cloudy.26 mph70%29.39 "HgN/A
8:55 PM41 °FPassing clouds.29 mph66%29.39 "HgN/A
8:25 PM41 °FPassing clouds.28 mph70%29.39 "HgN/A
7:55 PM41 °FPassing clouds.29 mph66%29.39 "HgN/A
7:25 PM41 °FPassing clouds.26 mph70%29.39 "HgN/A
6:55 PM41 °FPassing clouds.29 mph70%29.39 "HgN/A
6:25 PM41 °FPassing clouds.26 mph70%29.39 "HgN/A
5:55 PM41 °FPassing clouds.26 mph70%29.36 "HgN/A
5:25 PM41 °FPassing clouds.23 mph76%29.36 "HgN/A
4:55 PM39 °FPassing clouds.17 mph81%29.36 "HgN/A
4:25 PM39 °FLight rain. Broken clouds.24 mph93%29.39 "HgN/A
3:55 PM37 °FLight rain. Broken clouds.22 mph93%29.36 "Hg6 mi
3:25 PM45 °FDrizzle. Broken clouds.31 mph93%29.33 "Hg4 mi
2:55 PM45 °FDrizzle. Broken clouds.29 mph93%29.33 "Hg2 mi
2:25 PM43 °FDrizzle. Broken clouds.25 mph93%29.39 "Hg3 mi
1:55 PM43 °FDrizzle. Broken clouds.26 mph93%29.42 "Hg3 mi
1:25 PM43 °FDrizzle. Partly sunny.28 mph93%29.45 "Hg3 mi
12:55 PM43 °FDrizzle. Partly sunny.26 mph93%29.47 "Hg5 mi
12:25 PM43 °FDrizzle. Broken clouds.28 mph93%29.50 "Hg6 mi
11:55 AM43 °FPartly sunny.28 mph93%29.56 "Hg6 mi
11:25 AM43 °FPartly sunny.28 mph93%29.59 "Hg5 mi
10:55 AM43 °FDrizzle. Mostly cloudy.25 mph93%29.62 "Hg3 mi
10:25 AM43 °FBroken clouds.24 mph93%29.65 "Hg4 mi
9:55 AM43 °FDrizzle. Broken clouds.20 mph93%29.71 "Hg2 mi
9:25 AM43 °FDrizzle. Mostly cloudy.17 mph87%29.74 "Hg3 mi
8:55 AM43 °FBroken clouds.21 mph87%29.74 "HgN/A
8:25 AM43 °FPartly cloudy.20 mph87%29.77 "HgN/A
7:55 AM43 °FPartly cloudy.17 mph87%29.80 "HgN/A
7:25 AM43 °FPartly cloudy.18 mph87%29.83 "HgN/A
6:55 AM43 °FPartly cloudy.18 mph87%29.83 "HgN/A
6:25 AM43 °FPartly cloudy.18 mph87%29.86 "HgN/A
5:55 AM43 °FPassing clouds.17 mph87%29.89 "HgN/A
5:25 AM43 °FPassing clouds.17 mph87%29.92 "HgN/A
4:55 AM43 °FPartly cloudy.16 mph87%29.92 "HgN/A
4:25 AM43 °FPartly cloudy.15 mph93%29.95 "Hg5 mi
3:55 AM43 °FPartly cloudy.13 mph93%29.98 "Hg5 mi
3:25 AM43 °FPassing clouds.13 mph93%29.98 "Hg5 mi
2:55 AM43 °FPassing clouds.13 mph93%30.01 "Hg6 mi
2:25 AM43 °FPassing clouds.13 mph93%30.01 "HgN/A
1:55 AM43 °FPassing clouds.9 mph93%30.04 "HgN/A
1:25 AM43 °FPassing clouds.8 mph93%30.07 "HgN/A
12:55 AM43 °FPassing clouds.10 mph93%30.07 "Hg5 mi
12:25 AM43 °FPartly cloudy.10 mph93%30.09 "Hg4 mi
11:55 PM
Jan 27
43 °FPartly cloudy.10 mph93%30.09 "Hg4 mi
11:25 PM43 °FPassing clouds.13 mph93%30.12 "Hg4 mi
Weather by CustomWeather, © 2014

See weather overviewHow to use our weather pages